| time (UTC) | temp C | wind direction | speed KPH | gust KPH | rain 1hr cm | rain 24hr cm | rain mn cm | humidity % | barometer mb |
| 20260503193541 | 16 | 331 | 3.2 | 9.7 | 0.00 | 0.00 | 0.00 | 76 | 1016.1 |
| 20260503192541 | 16 | 327 | 3.2 | 9.7 | 0.00 | 0.00 | 0.00 | 75 | 1016.1 |
| 20260503191541 | 16 | 309 | 3.2 | 6.4 | 0.00 | 0.00 | 0.00 | 75 | 1016.0 |
| 20260503190540 | 16 | 289 | 3.2 | 4.8 | 0.00 | 0.00 | 0.00 | 74 | 1016.2 |
| 20260503185541 | 16 | 324 | 3.2 | 6.4 | 0.00 | 0.00 | 0.00 | 73 | 1016.1 |
| 20260503184602 | 16 | 330 | 1.6 | 4.8 | 0.00 | 0.00 | 0.00 | 72 | 1016.2 |
| 20260503183541 | 16 | 186 | 3.2 | 6.4 | 0.00 | 0.00 | 0.00 | 71 | 1016.2 |
| 20260503182601 | 16 | 36 | 1.6 | 6.4 | 0.00 | 0.00 | 0.00 | 72 | 1016.1 |
| 20260503181541 | 16 | 1 | 1.6 | 4.8 | 0.00 | 0.00 | 0.00 | 73 | 1016.1 |
| 20260503180601 | 16 | 116 | 1.6 | 4.8 | 0.00 | 0.00 | 0.00 | 73 | 1016.1 |
| 20260503175541 | 16 | 109 | 1.6 | 4.8 | 0.00 | 0.00 | 0.00 | 75 | 1016.2 |
| 20260503174541 | 15 | 285 | 3.2 | 6.4 | 0.00 | 0.00 | 0.00 | 77 | 1016.1 |
| 20260503173541 | 15 | 34 | 3.2 | 6.4 | 0.00 | 0.00 | 0.00 | 78 | 1016.2 |
| 20260503172541 | 15 | 349 | 1.6 | 9.7 | 0.00 | 0.00 | 0.00 | 77 | 1016.0 |
| 20260503171541 | 15 | 330 | 0.0 | 3.2 | 0.00 | 0.00 | 0.00 | 79 | 1016.0 |
| 20260503170541 | 15 | 309 | 1.6 | 3.2 | 0.00 | 0.00 | 0.00 | 79 | 1016.0 |
| 20260503150542 | 12 | 216 | 1.6 | 3.2 | 0.00 | 0.00 | 0.00 | 90 | 1015.5 |
| 20260503130603 | 12 | 0.0 | 1.6 | 0.00 | 0.00 | 0.00 | 87 | 1012.7 | |
| 20260503110601 | 12 | 72 | 0.0 | 3.2 | 0.00 | 0.00 | 0.00 | 85 | 1013.8 |
| 20260503081601 | 12 | 133 | 3.2 | 6.4 | 0.00 | 0.00 | 0.00 | 85 | 1014.1 |
| 20260503080542 | 12 | 130 | 1.6 | 6.4 | 0.00 | 0.00 | 0.00 | 85 | 1014.2 |
| 20260503072541 | 12 | 102 | 3.2 | 6.4 | 0.00 | 0.00 | 0.00 | 85 | 1014.2 |
| 20260503071601 | 12 | 7 | 1.6 | 6.4 | 0.00 | 0.00 | 0.00 | 85 | 1014.2 |
| 20260503070622 | 12 | 65 | 3.2 | 9.7 | 0.00 | 0.00 | 0.00 | 85 | 1014.2 |
| 20260503054541 | 12 | 353 | 4.8 | 14.5 | 0.00 | 0.00 | 0.00 | 83 | 1012.7 |
| 20260503053541 | 12 | 12 | 4.8 | 9.7 | 0.00 | 0.00 | 0.00 | 83 | 1014.5 |
| 20260503052601 | 12 | 68 | 4.8 | 12.9 | 0.00 | 0.00 | 0.00 | 84 | 1014.4 |
| 20260503051541 | 12 | 67 | 4.8 | 9.7 | 0.00 | 0.00 | 0.00 | 84 | 1014.4 |
| 20260503050542 | 12 | 73 | 4.8 | 12.9 | 0.00 | 0.00 | 0.00 | 85 | 1014.3 |
| 20260503045541 | 12 | 46 | 3.2 | 9.7 | 0.00 | 0.00 | 0.00 | 84 | 1014.3 |
| 20260503044541 | 12 | 52 | 4.8 | 14.5 | 0.00 | 0.00 | 0.00 | 84 | 1014.2 |
| 20260503043601 | 12 | 39 | 3.2 | 11.3 | 0.00 | 0.00 | 0.00 | 85 | 1014.1 |
| 20260503042541 | 12 | 87 | 3.2 | 12.9 | 0.00 | 0.00 | 0.00 | 85 | 1014.0 |
| 20260503041541 | 12 | 1 | 4.8 | 9.7 | 0.00 | 0.00 | 0.00 | 85 | 1013.9 |
| 20260503040541 | 12 | 47 | 4.8 | 14.5 | 0.00 | 0.00 | 0.00 | 85 | 1013.7 |
| 20260503035601 | 12 | 355 | 3.2 | 9.7 | 0.00 | 0.00 | 0.00 | 85 | 1013.6 |
| 20260503034541 | 12 | 102 | 3.2 | 14.5 | 0.00 | 0.00 | 0.00 | 85 | 1013.2 |
| 20260503033541 | 12 | 82 | 3.2 | 12.9 | 0.00 | 0.00 | 0.00 | 85 | 1013.3 |
| 20260503032541 | 13 | 359 | 4.8 | 11.3 | 0.00 | 0.00 | 0.00 | 84 | 1013.3 |
| 20260503031541 | 13 | 119 | 3.2 | 14.5 | 0.00 | 0.00 | 0.00 | 84 | 1013.1 |
| 20260503030541 | 13 | 56 | 4.8 | 12.9 | 0.00 | 0.00 | 0.00 | 83 | 1013.0 |
| 20260503025541 | 13 | 67 | 4.8 | 14.5 | 0.00 | 0.00 | 0.00 | 83 | 1012.8 |
| 20260503024541 | 13 | 56 | 4.8 | 12.9 | 0.00 | 0.00 | 0.00 | 83 | 1012.9 |
| 20260503023621 | 13 | 51 | 4.8 | 14.5 | 0.00 | 0.00 | 0.00 | 82 | 1012.8 |
| 20260503022541 | 13 | 63 | 4.8 | 14.5 | 0.00 | 0.00 | 0.00 | 81 | 1012.3 |
| 20260503021541 | 14 | 35 | 3.2 | 17.7 | 0.00 | 0.00 | 0.00 | 81 | 1012.7 |
| 20260503020541 | 14 | 49 | 4.8 | 20.9 | 0.00 | 0.00 | 0.00 | 80 | 1012.7 |
| 20260503015541 | 15 | 55 | 4.8 | 22.5 | 0.00 | 0.00 | 0.00 | 80 | 1012.7 |
| 20260503014601 | 15 | 329 | 6.4 | 17.7 | 0.00 | 0.00 | 0.00 | 79 | 1012.8 |
| 20260503013541 | 15 | 8 | 4.8 | 12.9 | 0.00 | 0.00 | 0.00 | 78 | 1012.8 |
| 20260503012541 | 15 | 17 | 4.8 | 14.5 | 0.00 | 0.00 | 0.00 | 77 | 1012.7 |
| 20260503011541 | 16 | 79 | 4.8 | 16.1 | 0.00 | 0.00 | 0.00 | 77 | 1012.6 |
| 20260503010541 | 16 | 318 | 8.0 | 17.7 | 0.00 | 0.00 | 0.00 | 75 | 1012.6 |
| 20260503005542 | 16 | 5 | 6.4 | 22.5 | 0.00 | 0.00 | 0.00 | 74 | 1012.5 |
| 20260503004541 | 17 | 35 | 6.4 | 20.9 | 0.00 | 0.00 | 0.00 | 71 | 1012.6 |
| 20260503003541 | 17 | 113 | 4.8 | 20.9 | 0.00 | 0.00 | 0.00 | 71 | 1012.5 |
| 20260503002541 | 18 | 34 | 6.4 | 14.5 | 0.00 | 0.00 | 0.00 | 70 | 1012.5 |
| 20260503001541 | 18 | 96 | 6.4 | 16.1 | 0.00 | 0.00 | 0.00 | 68 | 1012.6 |
| 20260503000541 | 19 | 345 | 6.4 | 16.1 | 0.00 | 0.00 | 0.00 | 67 | 1012.6 |
| 20260502235601 | 20 | 25 | 4.8 | 16.1 | 0.00 | 0.00 | 0.00 | 66 | 1012.5 |
| 20260502234540 | 20 | 52 | 4.8 | 20.9 | 0.00 | 0.00 | 0.00 | 66 | 1012.6 |
| 20260502233541 | 20 | 61 | 4.8 | 16.1 | 0.00 | 0.00 | 0.00 | 65 | 1012.6 |
| 20260502232541 | 20 | 62 | 4.8 | 14.5 | 0.00 | 0.00 | 0.00 | 64 | 1012.6 |
| 20260502231541 | 21 | 353 | 4.8 | 14.5 | 0.00 | 0.00 | 0.00 | 62 | 1011.6 |
| 20260502230541 | 21 | 51 | 4.8 | 14.5 | 0.00 | 0.00 | 0.00 | 61 | 1012.9 |
| 20260502225604 | 21 | 345 | 4.8 | 14.5 | 0.00 | 0.00 | 0.00 | 62 | 1012.3 |
| 20260502224542 | 21 | 32 | 6.4 | 12.9 | 0.00 | 0.00 | 0.00 | 62 | 1013.4 |
| 20260502223542 | 21 | 4 | 3.2 | 12.9 | 0.00 | 0.00 | 0.00 | 61 | 1013.5 |
| 20260502222542 | 21 | 40 | 6.4 | 14.5 | 0.00 | 0.00 | 0.00 | 60 | 1013.7 |
| 20260502221602 | 21 | 38 | 3.2 | 11.3 | 0.00 | 0.00 | 0.00 | 60 | 1013.8 |
| 20260502220601 | 21 | 334 | 3.2 | 9.7 | 0.00 | 0.00 | 0.00 | 61 | 1014.0 |
| 20260502215542 | 21 | 72 | 4.8 | 14.5 | 0.00 | 0.00 | 0.00 | 61 | 1014.1 |
| 20260502214542 | 21 | 33 | 4.8 | 9.7 | 0.00 | 0.00 | 0.00 | 62 | 1014.2 |
| 20260502213541 | 21 | 53 | 4.8 | 9.7 | 0.00 | 0.00 | 0.00 | 61 | 1014.4 |
| 20260502212541 | 21 | 63 | 4.8 | 11.3 | 0.00 | 0.00 | 0.00 | 62 | 1014.5 |
| 20260502211541 | 21 | 55 | 3.2 | 11.3 | 0.00 | 0.00 | 0.00 | 61 | 1014.4 |
| 20260502210541 | 21 | 35 | 3.2 | 9.7 | 0.00 | 0.00 | 0.00 | 62 | 1014.6 |
| 20260502205542 | 20 | 347 | 3.2 | 9.7 | 0.00 | 0.00 | 0.00 | 62 | 1014.8 |
| 20260502204541 | 20 | 57 | 3.2 | 12.9 | 0.00 | 0.00 | 0.00 | 64 | 1014.9 |
| 20260502203541 | 20 | 358 | 4.8 | 11.3 | 0.00 | 0.00 | 0.00 | 64 | 1015.2 |
| 20260502202541 | 20 | 28 | 4.8 | 11.3 | 0.00 | 0.00 | 0.00 | 65 | 1015.5 |
| 20260502201541 | 19 | 359 | 4.8 | 11.3 | 0.00 | 0.00 | 0.00 | 66 | 1015.6 |
| 20260502200541 | 20 | 31 | 3.2 | 11.3 | 0.00 | 0.00 | 0.00 | 66 | 1015.8 |
| 20260502195541 | 19 | 22 | 3.2 | 6.4 | 0.00 | 0.00 | 0.00 | 67 | 1016.0 |
| 20260502194541 | 18 | 354 | 4.8 | 11.3 | 0.00 | 0.00 | 0.00 | 68 | 1016.2 |